SCP
0 0 0 0 0 0 0 0 0 0 0 0 1 1 3 4 6 7 8 9 13 15 14 13 12 10 7 7 9 10 9 8 8 7 7 6 5 5 4 3 3 2 2 2
0 0 0 0 0 0 0 0 0 0 0 0 1 1 2 4 5 6 8 10 12 15 15 13 10 8 6 6 7 7 7 7 6 6 5 4 4 4 4 3 3 2 2 2
0 0 0 0 0 0 0 0 0 0 0 0 0 1 2 3 4 5 6 8 10 12 13 11 8 5 5 5 5 4 4 4 3 3 2 2 3 3 2 2 2 2 2 1
0 0 0 0 0 0 0 0 0 0 0 0 0 1 1 2 3 4 4 5 6 6 7 6 5 4 3 3 3 3 3 2 2 1 1 2 2 2 2 2 2 1 1 1
0 0 0 0 0 0 0 0 0 0 0 0 0 0 1 2 2 2 2 3 3 3 3 3 2 2 2 2 2 2 2 1 1 1 1 2 2 2 1 1 1 1 1 1
0 0 0 0 0 0 0 0 0 0 0 0 0 0 1 1 1 1 1 1 1 1 1 1 1 1 1 1 1 1 1 1 1 1 1 1 1 1 1 1 1 1 1 1
0 0 0 0 0 0 0 0 0 0 0 0 0 0 1 1 1 1 0 0 0 0 0 0 0 0 0 0 0 0 0 0 0 0 1 1 1 1 1 1 1 1 1 1
0 0 0 0 0 0 0 0 0 0 0 0 0 0 1 1 1 1 0 0 0 0 0 0 0 0 0 0 0 0 0 0 0 0 0 0 0 0 0 0 0 0 0 1
0 0 0 0 0 0 0 0 0 0 0 0 0 0 1 1 1 1 1 0 0 0 0 0 0 0 0 0 0 0 0 0 0 0 0 0 0 0 0 0 0 0 0 0
0 0 0 0 0 0 0 0 0 0 0 0 0 0 1 1 1 1 1 0 0 0 0 0 0 0 0 0 0 0 0 0 0 0 0 0 0 0 0 0 0 0 0 0
0 0 0 0 0 0 0 0 0 0 0 0 0 0 0 1 1 0 0 0 0 0 0 0 0 0 0 0 0 0 0 0 0 0 0 0 0 0 0 0 0 0 0 0
0 0 0 0 0 0 0 0 0 0 0 0 0 0 0 0 0 0 0 0 0 0 0 0 0 0 0 0 0 0 0 0 0 0 0 0 0 0 0 0 0 0 0 0
0 0 0 0 0 0 0 0 0 0 0 0 0 0 0 0 0 0 0 0 0 0 0 0 0 0 0 0 0 0 0 0 0 0 0 0 0 0 0 0 0 0 0 0
0 0 0 0 0 0 0 0 0 0 0 0 0 0 0 0 0 0 0 0 0 0 0 0 0 0 0 0 0 0 0 0 0 0 0 0 0 0 0 0 0 0 0 0
0 0 0 0 0 0 0 0 0 0 0 0 0 0 0 0 0 0 0 0 0 0 0 0 0 0 0 0 0 0 0 0 0 0 0 0 0 0 0 0 0 0 0 0
0 0 0 0 0 0 0 0 0 0 0 0 0 0 0 0 0 0 0 0 0 0 0 0 0 0 0 0 0 0 0 0 0 0 0 0 0 0 0 0 0 0 0 0
0 0 0 0 0 0 0 0 0 0 0 0 0 0 0 0 0 0 0 0 0 0 0 0 0 0 0 0 0 0 0 0 0 0 0 0 0 0 0 0 0 0 0 0
0 0 0 0 0 0 0 0 0 0 0 0 0 0 0 0 0 0 0 0 0 0 0 0 0 0 0 0 0 0 0 0 0 0 0 0 0 0 0 0 0 0 0 0
0 0 0 0 0 0 0 0 0 0 0 0 0 0 0 0 0 0 0 0 0 0 0 0 0 0 0 0 0 0 0 0 0 0 0 0 0 0 0 0 0 0 0 0
0 0 0 0 0 0 0 0 0 0 0 0 0 0 0 0 0 0 0 0 0 0 0 0 0 0 0 0 0 0 0 0 0 0 0 0 0 0 0 0 0 0 0 0
0 0 0 0 0 0 0 0 0 0 0 0 0 0 0 0 0 0 0 0 0 0 0 0 0 0 0 0 0 0 0 0 0 0 0 0 0 0 0 0 0 0 0 0
0 0 0 0 0 0 0 0 0 0 0 0 0 0 0 0 0 0 0 0 0 0 0 0 0 0 0 0 0 0 0 0 0 0 0 0 0 0 0 0 0 0 0 0
0 0 0 0 0 0 0 0 0 0 0 0 0 0 0 0 0 0 0 0 0 0 0 0 0 0 0 0 0 0 0 0 0 0 0 0 0 0 0 0 0 0 0 0
0 0 0 0 0 0 0 0 0 0 0 0 0 0 0 0 0 0 0 0 0 0 0 0 0 0 0 0 0 0 0 0 0 0 0 0 0 0 0 0 0 0 0 0
0 0 0 0 0 0 0 0 0 0 0 0 0 0 0 0 0 0 0 0 0 0 0 0 0 0 0 0 0 0 0 0 0 0 0 0 0 0 0 0 0 0 0 0
0 0 0 0 0 0 0 0 0 0 0 0 0 0 0 0 0 0 0 0 0 0 0 0 0 0 0 0 0 0 0 0 0 0 0 0 0 0 0 0 0 0 0 0
Wind_Speed
2 2 5 10 9 10 7 5 5 6 6 6 6 8 9 10 10 9 9 9 10 9 10 12 13 13 11 10 7 5 6 5 4 1 1 1 1 1 1 2 4 5 4 4
3 5 12 11 7 5 2 3 4 5 7 7 8 11 12 14 14 11 12 12 11 9 11 11 10 8 8 7 5 3 2 3 3 2 1 1 1 1 1 2 3 4 5 5
6 6 5 5 5 5 4 1 2 3 5 8 7 8 10 11 16 17 16 12 11 10 9 8 7 6 5 5 3 2 1 1 4 3 1 1 1 1 1 1 1 3 5 5
1 4 7 6 5 3 4 4 3 4 5 4 5 2 4 6 12 15 13 12 11 11 10 9 9 9 8 6 5 4 2 2 1 1 1 0 1 1 2 1 1 2 3 4
4 5 5 4 4 3 3 1 3 2 2 2 4 4 2 4 8 10 10 11 10 10 10 11 10 9 9 9 8 7 7 7 6 5 3 2 2 0 0 0 1 1 2 2
3 3 2 3 4 3 1 5 7 6 6 3 2 3 2 3 3 5 7 8 8 7 8 9 9 8 9 9 8 7 8 8 8 8 7 5 4 3 3 2 1 1 2 2
7 7 5 2 4 6 5 6 6 7 6 2 1 4 1 1 4 5 5 5 4 4 5 6 6 7 7 7 7 6 6 6 6 7 7 6 5 4 4 3 2 2 2 2
1 6 5 3 1 2 2 6 5 3 4 2 2 2 2 3 4 4 4 4 4 3 3 4 4 4 4 4 4 4 4 4 4 5 5 5 5 3 3 3 3 3 2 2
4 5 5 4 3 1 2 1 4 6 0 2 0 0 1 3 3 3 4 3 3 3 3 3 2 2 2 2 2 2 2 2 2 2 2 3 3 3 3 4 3 3 3 3
5 2 4 5 5 4 3 2 5 4 2 1 1 3 4 8 7 5 4 3 2 2 3 3 3 3 3 3 2 2 2 1 1 1 1 1 2 2 3 3 4 4 4 4
3 3 5 5 3 3 4 4 3 2 4 4 2 4 3 7 7 5 4 4 4 4 4 4 4 5 4 4 3 3 3 3 3 3 3 3 4 4 3 3 4 4 4 4
2 5 2 5 4 0 1 1 3 2 2 2 2 4 1 3 4 4 4 3 3 4 4 5 5 5 5 5 5 5 6 6 7 6 6 6 6 5 5 6 6 6 6 6
3 6 4 9 9 6 5 3 1 4 3 2 1 3 2 2 2 2 2 2 3 4 5 4 4 4 5 6 6 7 7 8 8 7 7 7 7 7 7 8 8 7 7 7
5 5 4 3 6 4 4 7 6 6 3 1 0 2 1 1 1 2 2 4 5 5 5 4 4 5 6 7 7 8 8 9 8 8 8 8 9 9 9 9 8 8 8 7
6 3 2 2 2 8 9 8 9 8 4 3 0 2 0 0 2 3 4 6 6 5 4 5 5 6 7 7 8 8 8 9 9 8 9 10 11 10 9 9 9 9 8 9
5 3 4 4 5 10 10 9 6 6 4 3 4 3 2 1 3 4 6 6 5 5 7 8 8 7 7 8 8 8 9 9 8 9 10 10 9 9 9 9 9 8 8 9
2 3 3 4 4 4 6 5 5 4 4 3 2 1 3 4 6 6 7 6 7 8 9 9 8 8 9 9 9 9 10 9 8 9 9 9 9 9 9 10 8 8 9 8
5 3 3 1 6 4 2 1 4 5 4 4 1 2 4 5 7 6 6 7 8 9 9 9 9 9 9 9 9 9 8 8 8 9 9 9 8 9 9 8 8 8 7 7
5 5 3 3 1 1 0 3 2 0 2 1 2 5 6 6 6 6 8 8 9 10 10 10 9 10 9 9 9 8 8 8 8 8 8 8 8 8 8 8 8 7 6 7
5 5 5 3 1 3 3 3 3 1 3 2 3 5 7 6 7 8 8 9 10 10 9 9 9 9 9 9 9 8 9 9 9 9 9 8 8 8 8 8 8 7 6 7
4 5 4 2 0 2 3 3 4 2 6 5 4 5 5 5 7 10 11 10 9 9 10 9 9 8 8 9 8 9 9 10 9 9 8 8 8 8 8 8 7 7 6 6
3 3 1 2 1 5 3 3 2 5 5 4 4 5 6 8 10 10 9 9 10 9 9 9 8 9 9 9 9 10 11 11 10 10 10 9 9 9 9 7 6 6 6 6
3 6 6 6 5 4 2 4 4 4 3 4 5 7 7 8 9 9 8 8 9 9 9 9 10 11 11 10 10 12 12 11 11 11 11 10 10 9 8 8 8 7 6 6
2 3 4 3 2 3 3 2 1 1 2 4 5 6 6 7 8 9 8 8 9 9 10 10 11 13 13 12 12 12 13 12 11 11 11 9 9 9 8 7 6 6 6 6
3 3 3 1 1 0 2 2 2 2 4 5 6 6 6 7 8 7 8 9 9 10 9 10 12 14 15 14 13 14 13 12 12 12 10 9 8 8 7 7 6 7 7 7
1 5 5 5 6 4 4 4 2 3 5 6 6 7 7 6 7 8 8 9 10 12 12 13 13 14 15 15 15 14 13 12 12 10 9 7 6 6 6 6 6 9 9 10
Wind_Direction
304 101 249 246 218 219 245 272 296 298 319 37 58 62 51 47 58 61 59 61 67 59 48 51 59 65 71 69 65 42 39 29 19 26 131 154 193 192 156 146 154 146 145 143
345 261 250 257 269 251 282 348 334 325 350 36 59 60 53 48 48 52 62 61 65 67 57 51 53 63 75 83 95 100 77 73 56 329 294 228 223 218 189 165 165 160 157 165
220 259 302 323 326 349 351 348 342 336 8 32 60 41 39 46 50 51 51 52 53 63 68 64 57 48 57 72 85 83 72 143 163 190 266 28 49 25 39 149 189 189 177 178
314 327 350 344 334 358 321 323 25 27 47 358 49 59 13 31 51 48 46 47 45 42 49 58 56 45 44 46 58 62 52 31 32 78 87 123 153 191 218 206 198 206 201 197
323 333 342 328 313 324 266 344 39 34 88 54 31 95 329 14 47 44 47 52 52 50 51 57 56 49 47 49 55 51 40 28 17 21 39 52 49 19 334 47 111 240 258 240
291 298 287 272 303 302 308 31 27 39 57 31 340 103 336 4 58 67 64 66 65 65 63 62 60 59 56 54 54 51 45 32 22 26 29 40 44 33 30 21 12 322 301 297
331 328 319 310 342 337 39 63 21 359 8 280 11 102 206 127 113 115 112 104 96 83 76 71 64 61 61 59 57 55 53 37 24 28 27 25 25 25 23 7 356 350 335 319
311 312 306 318 211 248 305 124 146 212 242 270 20 146 201 152 134 131 126 123 114 102 95 95 90 87 83 77 69 64 60 43 25 25 20 20 20 20 10 0 349 343 323 302
190 262 290 312 312 123 9 322 179 150 96 80 233 163 189 171 179 168 156 143 141 144 141 137 131 128 127 116 106 99 85 53 23 19 9 8 6 7 356 347 341 330 323 319
167 234 313 326 25 21 122 145 62 73 80 336 266 227 214 193 201 193 174 172 175 166 169 175 179 176 172 170 169 149 135 166 269 312 317 326 322 319 318 325 323 317 315 322
103 97 324 356 10 328 2 28 72 102 157 155 237 263 258 185 183 180 188 190 184 193 202 210 209 201 193 186 183 191 200 212 229 234 234 246 256 262 270 275 278 283 288 299
64 99 336 297 289 286 59 279 140 140 287 141 157 262 290 161 168 175 194 210 212 221 226 226 223 218 210 213 219 223 226 230 234 233 232 236 245 253 260 264 267 269 274 278
84 85 28 346 345 353 2 346 53 127 95 72 98 272 208 186 192 200 206 261 283 286 282 274 268 256 246 243 243 243 242 242 244 240 240 245 248 248 250 254 258 260 261 266
96 86 137 210 264 297 22 34 37 80 85 66 181 223 216 230 265 328 329 315 309 312 316 314 295 277 266 259 254 252 252 248 247 242 239 242 245 243 244 247 249 250 249 254
85 65 327 282 56 75 68 59 61 74 95 114 88 120 48 20 352 336 325 320 322 324 320 306 285 269 265 265 262 257 254 253 249 243 240 240 242 241 242 243 245 247 245 248
74 67 14 354 89 92 70 46 47 59 54 77 98 83 351 341 348 332 322 317 308 295 291 289 285 277 270 265 261 257 255 252 246 241 242 242 240 239 238 239 241 241 242 244
80 80 48 325 320 82 37 15 39 46 31 76 101 280 311 328 324 308 301 296 287 286 288 286 280 269 266 263 260 260 257 255 250 246 246 243 240 240 238 239 237 234 235 234
130 107 113 353 24 37 233 19 68 94 82 76 98 299 298 289 284 282 287 286 291 292 291 287 278 273 270 267 269 268 267 263 258 256 255 252 247 244 242 239 236 234 230 227
136 131 99 85 47 170 268 12 13 320 195 33 335 312 307 301 312 297 283 282 283 284 282 280 278 279 281 281 279 280 277 273 269 265 260 257 252 252 250 244 240 235 227 227
47 76 91 76 56 247 251 307 306 360 234 287 341 318 308 326 324 291 284 284 283 285 287 289 290 291 292 289 289 288 285 282 277 273 270 264 257 252 249 246 242 237 229 231
22 36 66 78 331 260 270 310 37 61 270 289 296 295 297 289 263 274 290 293 292 294 295 296 298 297 291 292 294 289 286 280 277 276 274 271 265 261 255 247 241 237 235 235
125 104 90 90 20 273 296 54 91 234 254 278 288 289 288 280 281 290 298 301 304 305 303 302 298 294 292 293 293 289 284 282 280 277 274 270 265 265 272 252 244 237 230 231
141 173 176 174 205 226 118 140 194 211 259 282 287 292 292 296 298 303 304 306 306 305 303 302 300 302 300 296 291 290 289 289 287 282 277 275 271 263 258 250 245 242 233 230
255 152 109 109 159 160 144 152 261 281 290 296 299 302 306 305 306 310 309 309 309 306 307 307 308 306 303 299 294 289 290 289 285 282 278 273 271 267 259 251 242 237 232 227
209 126 102 133 214 152 326 327 321 335 332 324 317 311 313 316 314 311 312 312 311 309 307 307 308 307 306 305 301 296 293 289 282 277 274 271 266 262 256 248 241 236 231 220
204 151 152 210 219 196 253 276 329 352 331 321 322 322 320 321 316 318 315 310 310 313 314 314 313 312 310 308 304 301 296 292 287 281 274 266 261 257 250 250 257 246 238 238